Tracking 25195 objects as of 20-Jan-2022
HD Live streaming from Space Station
objects crossing your sky now

STARLINK-3275

Track STARLINK-3275 now!
10-day predictions
STARLINK-3275 is classified as:


NORAD ID: 50188
Int'l Code: 2021-125AJ
Perigee: 356.4 km
Apogee: 358.0 km
Inclination: 53.2 °
Period: 91.5 minutes
Semi major axis: 6728 km
RCS: Unknown
Launch date: December 18, 2021
Source: United States (US)
Launch site: AIR FORCE WESTERN TEST RANGE (AFWTR)
aabbcc
Your satellite tracking list
Your tracking list is empty




NASA's NSSDC Master Catalog

Two Line Element Set (TLE):
1 50188U 21125AJ  22020.91667824  .00081097  00000-0  57954-3 0  9990
2 50188  53.2167 200.3192 0001166  66.6645 340.6914 15.73083771  5477
Source of the keplerian elements: AFSPC